Year,Month,Day,Hour,Minute,Value (Times are PST for windspeed in km/hr)
2007,09,29,00,00,0.50
2007,09,29,00,01,0.00
2007,09,29,00,02,0.30
2007,09,29,00,03,0.00
2007,09,29,00,04,0.00
2007,09,29,00,05,0.10
2007,09,29,00,06,0.00
2007,09,29,00,07,0.00
2007,09,29,00,08,0.00
2007,09,29,00,09,0.00
2007,09,29,00,10,0.20
2007,09,29,00,11,0.20
2007,09,29,00,12,0.00
2007,09,29,00,13,0.00
2007,09,29,00,14,0.00
2007,09,29,00,15,0.00
2007,09,29,00,16,0.00
2007,09,29,00,17,0.00
2007,09,29,00,18,0.00
2007,09,29,00,19,0.00
2007,09,29,00,20,0.00
2007,09,29,00,21,0.00
2007,09,29,00,22,0.00
2007,09,29,00,23,0.00
2007,09,29,00,24,0.00
2007,09,29,00,25,0.00
2007,09,29,00,26,0.00
2007,09,29,00,27,0.30
2007,09,29,00,28,0.00
2007,09,29,00,29,0.00
2007,09,29,00,30,0.00
2007,09,29,00,31,0.00
2007,09,29,00,32,0.00
2007,09,29,00,33,0.00
2007,09,29,00,34,0.00
2007,09,29,00,35,0.00
2007,09,29,00,36,0.00
2007,09,29,00,37,0.00
2007,09,29,00,38,0.00
2007,09,29,00,39,0.00
2007,09,29,00,40,0.10
2007,09,29,00,41,0.10
2007,09,29,00,42,0.20
2007,09,29,00,43,0.30
2007,09,29,00,44,0.30
2007,09,29,00,45,0.00
2007,09,29,00,46,0.10
2007,09,29,00,47,0.60
2007,09,29,00,48,0.00
2007,09,29,00,49,0.00
2007,09,29,00,50,0.00
2007,09,29,00,51,0.00
2007,09,29,00,52,0.00
2007,09,29,00,53,0.00
2007,09,29,00,54,0.00
2007,09,29,00,55,0.00
2007,09,29,00,56,0.00
2007,09,29,00,57,0.00
2007,09,29,00,58,0.00
2007,09,29,00,59,0.00
2007,09,29,01,00,0.00
2007,09,29,01,01,0.00
2007,09,29,01,02,0.20
2007,09,29,01,03,0.20
2007,09,29,01,04,0.40
2007,09,29,01,05,0.20
2007,09,29,01,06,0.00
2007,09,29,01,07,0.00
2007,09,29,01,08,0.00
2007,09,29,01,09,0.20
2007,09,29,01,10,0.00
2007,09,29,01,11,0.00
2007,09,29,01,12,0.00
2007,09,29,01,13,0.40
2007,09,29,01,14,0.20
2007,09,29,01,15,0.00
2007,09,29,01,16,0.00
2007,09,29,01,17,0.00
2007,09,29,01,18,0.00
2007,09,29,01,19,0.00
2007,09,29,01,20,0.00
2007,09,29,01,21,0.00
2007,09,29,01,22,0.00
2007,09,29,01,23,0.00
2007,09,29,01,24,0.00
2007,09,29,01,25,0.00
2007,09,29,01,26,0.30
2007,09,29,01,27,0.20
2007,09,29,01,28,0.10
2007,09,29,01,29,0.00
2007,09,29,01,30,0.10
2007,09,29,01,31,0.00
2007,09,29,01,32,0.00
2007,09,29,01,33,0.00
2007,09,29,01,34,0.00
2007,09,29,01,35,0.20
2007,09,29,01,36,0.00
2007,09,29,01,37,0.00
2007,09,29,01,38,0.00
2007,09,29,01,39,0.00
2007,09,29,01,40,0.20
2007,09,29,01,41,0.40
2007,09,29,01,42,0.00
2007,09,29,01,43,0.00
2007,09,29,01,44,0.00
2007,09,29,01,45,0.80
2007,09,29,01,46,1.00
2007,09,29,01,47,1.10
2007,09,29,01,48,0.40
2007,09,29,01,49,0.70
2007,09,29,01,50,1.40
2007,09,29,01,51,0.50
2007,09,29,01,52,0.90
2007,09,29,01,53,0.90
2007,09,29,01,54,0.50
2007,09,29,01,55,0.40
2007,09,29,01,56,0.10
2007,09,29,01,57,0.00
2007,09,29,01,58,0.30
2007,09,29,01,59,0.10
2007,09,29,02,00,0.20
2007,09,29,02,01,0.60
2007,09,29,02,02,0.20
2007,09,29,02,03,0.00
2007,09,29,02,04,0.00
2007,09,29,02,05,0.00
2007,09,29,02,06,0.90
2007,09,29,02,07,0.30
2007,09,29,02,08,0.20
2007,09,29,02,09,1.60
2007,09,29,02,10,1.80
2007,09,29,02,11,1.20
2007,09,29,02,12,0.20
2007,09,29,02,13,0.00
2007,09,29,02,14,0.70
2007,09,29,02,15,0.00
2007,09,29,02,16,0.00
2007,09,29,02,17,0.00
2007,09,29,02,18,0.00
2007,09,29,02,19,0.00
2007,09,29,02,20,0.00
2007,09,29,02,21,0.00
2007,09,29,02,22,0.00
2007,09,29,02,23,0.40
2007,09,29,02,24,0.00
2007,09,29,02,25,0.00
2007,09,29,02,26,0.00
2007,09,29,02,27,0.00
2007,09,29,02,28,0.00
2007,09,29,02,29,0.00
2007,09,29,02,30,0.00
2007,09,29,02,31,0.00
2007,09,29,02,32,0.00
2007,09,29,02,33,0.00
2007,09,29,02,34,0.00
2007,09,29,02,35,0.00
2007,09,29,02,36,0.00
2007,09,29,02,37,0.00
2007,09,29,02,38,0.00
2007,09,29,02,39,0.20
2007,09,29,02,40,0.10
2007,09,29,02,41,0.00
2007,09,29,02,42,0.00
2007,09,29,02,43,0.00
2007,09,29,02,44,0.00
2007,09,29,02,45,0.00
2007,09,29,02,46,0.00
2007,09,29,02,47,0.00
2007,09,29,02,48,0.00
2007,09,29,02,49,0.00
2007,09,29,02,50,0.00
2007,09,29,02,51,0.20
2007,09,29,02,52,0.00
2007,09,29,02,53,1.00
2007,09,29,02,54,0.10
2007,09,29,02,55,0.30
2007,09,29,02,56,0.00
2007,09,29,02,57,0.00
2007,09,29,02,58,0.00
2007,09,29,02,59,0.60
2007,09,29,03,00,0.10
2007,09,29,03,01,0.00
2007,09,29,03,02,0.00
2007,09,29,03,03,0.00
2007,09,29,03,04,0.00
2007,09,29,03,05,0.00
2007,09,29,03,06,0.00
2007,09,29,03,07,0.00
2007,09,29,03,08,0.00
2007,09,29,03,09,0.00
2007,09,29,03,10,0.20
2007,09,29,03,11,0.00
2007,09,29,03,12,0.00
2007,09,29,03,13,0.00
2007,09,29,03,14,0.30
2007,09,29,03,15,0.00
2007,09,29,03,16,0.00
2007,09,29,03,17,0.20
2007,09,29,03,18,0.00
2007,09,29,03,19,0.00
2007,09,29,03,20,0.00
2007,09,29,03,21,0.00
2007,09,29,03,22,1.60
2007,09,29,03,23,0.20
2007,09,29,03,24,0.00
2007,09,29,03,25,0.00
2007,09,29,03,26,0.00
2007,09,29,03,27,0.00
2007,09,29,03,28,0.00
2007,09,29,03,29,0.00
2007,09,29,03,30,0.90
2007,09,29,03,31,2.30
2007,09,29,03,32,0.20
2007,09,29,03,33,0.00
2007,09,29,03,34,0.00
2007,09,29,03,35,0.50
2007,09,29,03,36,0.70
2007,09,29,03,37,0.20
2007,09,29,03,38,0.10
2007,09,29,03,39,0.00
2007,09,29,03,40,1.40
2007,09,29,03,41,0.20
2007,09,29,03,42,2.00
2007,09,29,03,43,1.00
2007,09,29,03,44,0.00
2007,09,29,03,45,0.00
2007,09,29,03,46,0.50
2007,09,29,03,47,0.00
2007,09,29,03,48,0.80
2007,09,29,03,49,0.90
2007,09,29,03,50,0.90
2007,09,29,03,51,0.30
2007,09,29,03,52,0.00
2007,09,29,03,53,0.30
2007,09,29,03,54,0.60
2007,09,29,03,55,0.00
2007,09,29,03,56,1.40
2007,09,29,03,57,0.20
2007,09,29,03,58,0.00
2007,09,29,03,59,1.20
2007,09,29,04,00,0.20
2007,09,29,04,01,3.00
2007,09,29,04,02,0.50
2007,09,29,04,03,0.00
2007,09,29,04,04,0.00
2007,09,29,04,05,0.30
2007,09,29,04,06,0.50
2007,09,29,04,07,1.00
2007,09,29,04,08,0.00
2007,09,29,04,09,0.50
2007,09,29,04,10,0.10
2007,09,29,04,11,0.20
2007,09,29,04,12,0.10
2007,09,29,04,13,0.20
2007,09,29,04,14,0.20
2007,09,29,04,15,0.10
2007,09,29,04,16,0.00
2007,09,29,04,17,0.00
2007,09,29,04,18,0.00
2007,09,29,04,19,0.00
2007,09,29,04,20,0.50
2007,09,29,04,21,3.20
2007,09,29,04,22,0.80
2007,09,29,04,23,0.40
2007,09,29,04,24,0.00
2007,09,29,04,25,0.00
2007,09,29,04,26,0.30
2007,09,29,04,27,0.60
2007,09,29,04,28,0.10
2007,09,29,04,29,0.10
2007,09,29,04,30,0.20
2007,09,29,04,31,0.00
2007,09,29,04,32,0.10
2007,09,29,04,33,0.30
2007,09,29,04,34,0.00
2007,09,29,04,35,0.10
2007,09,29,04,36,0.00
2007,09,29,04,37,0.00
2007,09,29,04,38,0.00
2007,09,29,04,39,0.50
2007,09,29,04,40,0.00
2007,09,29,04,41,0.00
2007,09,29,04,42,0.10
2007,09,29,04,43,0.10
2007,09,29,04,44,0.20
2007,09,29,04,45,0.00
2007,09,29,04,46,4.40
2007,09,29,04,47,0.50
2007,09,29,04,48,0.00
2007,09,29,04,49,2.40
2007,09,29,04,50,2.70
2007,09,29,04,51,1.10
2007,09,29,04,52,0.50
2007,09,29,04,53,0.70
2007,09,29,04,54,0.30
2007,09,29,04,55,1.50
2007,09,29,04,56,2.30
2007,09,29,04,57,0.70
2007,09,29,04,58,1.40
2007,09,29,04,59,1.60
2007,09,29,05,00,2.00
2007,09,29,05,01,2.40
2007,09,29,05,02,3.50
2007,09,29,05,03,3.00
2007,09,29,05,04,2.60
2007,09,29,05,05,2.20
2007,09,29,05,06,0.10
2007,09,29,05,07,0.80
2007,09,29,05,08,0.10
2007,09,29,05,09,0.00
2007,09,29,05,10,0.70
2007,09,29,05,11,0.20
2007,09,29,05,12,0.00
2007,09,29,05,13,0.10
2007,09,29,05,14,0.00
2007,09,29,05,15,0.00
2007,09,29,05,16,0.00
2007,09,29,05,17,0.00
2007,09,29,05,18,0.10
2007,09,29,05,19,0.00
2007,09,29,05,20,0.00
2007,09,29,05,21,0.00
2007,09,29,05,22,0.00
2007,09,29,05,23,0.20
2007,09,29,05,24,0.20
2007,09,29,05,25,1.90
2007,09,29,05,26,1.90
2007,09,29,05,27,0.20
2007,09,29,05,28,0.00
2007,09,29,05,29,0.20
2007,09,29,05,30,0.00
2007,09,29,05,31,0.00
2007,09,29,05,32,0.00
2007,09,29,05,33,0.10
2007,09,29,05,34,0.00
2007,09,29,05,35,0.00
2007,09,29,05,36,0.00
2007,09,29,05,37,0.00
2007,09,29,05,38,0.00
2007,09,29,05,39,0.20
2007,09,29,05,40,0.00
2007,09,29,05,41,0.20
2007,09,29,05,42,0.20
2007,09,29,05,43,0.30
2007,09,29,05,44,0.00
2007,09,29,05,45,0.00
2007,09,29,05,46,0.00
2007,09,29,05,47,0.00
2007,09,29,05,48,0.00
2007,09,29,05,49,0.00
2007,09,29,05,50,0.20
2007,09,29,05,51,0.00
2007,09,29,05,52,0.20
2007,09,29,05,53,0.20
2007,09,29,05,54,0.10
2007,09,29,05,55,0.00
2007,09,29,05,56,0.00
2007,09,29,05,57,0.00
2007,09,29,05,58,0.20
2007,09,29,05,59,0.90
2007,09,29,06,00,0.20
2007,09,29,06,01,0.00
2007,09,29,06,02,0.00
2007,09,29,06,03,0.10
2007,09,29,06,04,0.00
2007,09,29,06,05,0.60
2007,09,29,06,06,0.20
2007,09,29,06,07,0.50
2007,09,29,06,08,0.50
2007,09,29,06,09,0.40
2007,09,29,06,10,0.00
2007,09,29,06,11,0.20
2007,09,29,06,12,0.20
2007,09,29,06,13,0.60
2007,09,29,06,14,0.00
2007,09,29,06,15,0.20
2007,09,29,06,16,0.00
2007,09,29,06,17,0.00
2007,09,29,06,18,0.00
2007,09,29,06,19,0.00
2007,09,29,06,20,0.00
2007,09,29,06,21,0.10
2007,09,29,06,22,0.10
2007,09,29,06,23,0.00
2007,09,29,06,24,0.00
2007,09,29,06,25,0.10
2007,09,29,06,26,0.00
2007,09,29,06,27,0.00
2007,09,29,06,28,0.40
2007,09,29,06,29,0.00
2007,09,29,06,30,0.10
2007,09,29,06,31,0.00
2007,09,29,06,32,0.00
2007,09,29,06,33,0.00
2007,09,29,06,34,0.00
2007,09,29,06,35,0.00
2007,09,29,06,36,0.10
2007,09,29,06,37,1.40
2007,09,29,06,38,0.10
2007,09,29,06,39,0.00
2007,09,29,06,40,0.00
2007,09,29,06,41,0.00
2007,09,29,06,42,0.00
2007,09,29,06,43,0.00
2007,09,29,06,44,0.40
2007,09,29,06,45,0.20
2007,09,29,06,46,0.00
2007,09,29,06,47,0.10
2007,09,29,06,48,0.00
2007,09,29,06,49,0.00
2007,09,29,06,50,0.00
2007,09,29,06,51,0.00
2007,09,29,06,52,0.00
2007,09,29,06,53,0.00
2007,09,29,06,54,0.00
2007,09,29,06,55,0.00
2007,09,29,06,56,0.20
2007,09,29,06,57,0.00
2007,09,29,06,58,0.00
2007,09,29,06,59,0.00
2007,09,29,07,00,0.00
2007,09,29,07,01,0.00
2007,09,29,07,02,0.00
2007,09,29,07,03,0.30
2007,09,29,07,04,0.40
2007,09,29,07,05,0.30
2007,09,29,07,06,0.20
2007,09,29,07,07,0.70
2007,09,29,07,08,0.20
2007,09,29,07,09,0.50
2007,09,29,07,10,1.40
2007,09,29,07,11,0.30
2007,09,29,07,12,0.90
2007,09,29,07,13,0.30
2007,09,29,07,14,1.20
2007,09,29,07,15,0.20
2007,09,29,07,16,0.30
2007,09,29,07,17,0.30
2007,09,29,07,18,0.60
2007,09,29,07,19,0.20
2007,09,29,07,20,0.30
2007,09,29,07,21,0.20
2007,09,29,07,22,0.30
2007,09,29,07,23,1.00
2007,09,29,07,24,0.20
2007,09,29,07,25,0.40
2007,09,29,07,26,0.10
2007,09,29,07,27,0.60
2007,09,29,07,28,0.60
2007,09,29,07,29,0.40
2007,09,29,07,30,0.70
2007,09,29,07,31,1.10
2007,09,29,07,32,1.20
2007,09,29,07,33,0.90
2007,09,29,07,34,1.30
2007,09,29,07,35,0.70
2007,09,29,07,36,1.50
2007,09,29,07,37,1.00
2007,09,29,07,38,0.40
2007,09,29,07,39,2.00
2007,09,29,07,40,0.40
2007,09,29,07,41,0.30
2007,09,29,07,42,0.70
2007,09,29,07,43,0.50
2007,09,29,07,44,0.10
2007,09,29,07,45,0.10
2007,09,29,07,46,1.50
2007,09,29,07,47,0.50
2007,09,29,07,48,0.00
2007,09,29,07,49,0.10
2007,09,29,07,50,1.50
2007,09,29,07,51,1.20
2007,09,29,07,52,2.10
2007,09,29,07,53,0.10
2007,09,29,07,54,0.10
2007,09,29,07,55,0.90
2007,09,29,07,56,2.00
2007,09,29,07,57,0.90
2007,09,29,07,58,0.00
2007,09,29,07,59,0.00
2007,09,29,08,00,0.90
2007,09,29,08,01,1.00
2007,09,29,08,02,2.70
2007,09,29,08,03,0.70
2007,09,29,08,04,1.10
2007,09,29,08,05,5.90
2007,09,29,08,06,4.20
2007,09,29,08,07,3.90
2007,09,29,08,08,4.70
2007,09,29,08,09,3.40
2007,09,29,08,10,6.50
2007,09,29,08,11,5.60
2007,09,29,08,12,9.20
2007,09,29,08,13,7.40
2007,09,29,08,14,6.30
2007,09,29,08,15,5.60
2007,09,29,08,16,4.70
2007,09,29,08,17,5.70
2007,09,29,08,18,7.20
2007,09,29,08,19,5.60
2007,09,29,08,20,3.00
2007,09,29,08,21,4.10
2007,09,29,08,22,5.40
2007,09,29,08,23,8.20
2007,09,29,08,24,4.30
2007,09,29,08,25,2.30
2007,09,29,08,26,4.80
2007,09,29,08,27,3.10
2007,09,29,08,28,4.20
2007,09,29,08,29,3.40
2007,09,29,08,30,4.10
2007,09,29,08,31,4.70
2007,09,29,08,32,4.20
2007,09,29,08,33,5.30
2007,09,29,08,34,3.50
2007,09,29,08,35,4.60
2007,09,29,08,36,2.70
2007,09,29,08,37,5.50
2007,09,29,08,38,3.60
2007,09,29,08,39,4.50
2007,09,29,08,40,3.90
2007,09,29,08,41,5.80
2007,09,29,08,42,8.90
2007,09,29,08,43,7.90
2007,09,29,08,44,6.00
2007,09,29,08,45,6.80
2007,09,29,08,46,3.80
2007,09,29,08,47,6.10
2007,09,29,08,48,5.20
2007,09,29,08,49,6.80
2007,09,29,08,50,5.10
2007,09,29,08,51,4.10
2007,09,29,08,52,4.80
2007,09,29,08,53,3.40
2007,09,29,08,54,3.50
2007,09,29,08,55,10.10
2007,09,29,08,56,1.00
2007,09,29,08,57,4.30
2007,09,29,08,58,1.60
2007,09,29,08,59,6.00
2007,09,29,09,00,8.80
2007,09,29,09,01,6.50
2007,09,29,09,02,4.40
2007,09,29,09,03,2.00
2007,09,29,09,04,3.50
2007,09,29,09,05,7.80
2007,09,29,09,06,5.10
2007,09,29,09,07,5.80
2007,09,29,09,08,5.20
2007,09,29,09,09,4.30
2007,09,29,09,10,5.50
2007,09,29,09,11,4.80
2007,09,29,09,12,4.80
2007,09,29,09,13,4.40
2007,09,29,09,14,7.60
2007,09,29,09,15,7.30
2007,09,29,09,16,4.30
2007,09,29,09,17,4.60
2007,09,29,09,18,5.30
2007,09,29,09,19,2.40
2007,09,29,09,20,5.20
2007,09,29,09,21,6.30
2007,09,29,09,22,7.30
2007,09,29,09,23,7.80
2007,09,29,09,24,10.60
2007,09,29,09,25,8.10
2007,09,29,09,26,8.20
2007,09,29,09,27,6.00
2007,09,29,09,28,4.90
2007,09,29,09,29,9.00
2007,09,29,09,30,6.20
2007,09,29,09,31,5.50
2007,09,29,09,32,6.30
2007,09,29,09,33,6.40
2007,09,29,09,34,8.40
2007,09,29,09,35,7.60
2007,09,29,09,36,11.10
2007,09,29,09,37,12.20
2007,09,29,09,38,10.70
2007,09,29,09,39,10.10
2007,09,29,09,40,10.40
2007,09,29,09,41,14.00
2007,09,29,09,42,9.50
2007,09,29,09,43,7.40
2007,09,29,09,44,11.60
2007,09,29,09,45,7.00
2007,09,29,09,46,6.40
2007,09,29,09,47,8.10
2007,09,29,09,48,8.50
2007,09,29,09,49,6.00
2007,09,29,09,50,5.60
2007,09,29,09,51,5.30
2007,09,29,09,52,9.70
2007,09,29,09,53,6.90
2007,09,29,09,54,5.30
2007,09,29,09,55,3.80
2007,09,29,09,56,6.10
2007,09,29,09,57,3.80
2007,09,29,09,58,5.80
2007,09,29,09,59,5.70
2007,09,29,10,00,4.50
2007,09,29,10,01,6.50
2007,09,29,10,02,8.00
2007,09,29,10,03,9.40
2007,09,29,10,04,11.00
2007,09,29,10,05,7.30
2007,09,29,10,06,3.30
2007,09,29,10,07,5.90
2007,09,29,10,08,6.30
2007,09,29,10,09,8.50
2007,09,29,10,10,5.70
2007,09,29,10,11,3.40
2007,09,29,10,12,6.20
2007,09,29,10,13,11.60
2007,09,29,10,14,7.00
2007,09,29,10,15,4.70
2007,09,29,10,16,10.30
2007,09,29,10,17,6.90
2007,09,29,10,18,4.50
2007,09,29,10,19,8.90
2007,09,29,10,20,12.20
2007,09,29,10,21,10.10
2007,09,29,10,22,10.90
2007,09,29,10,23,5.60
2007,09,29,10,24,4.80
2007,09,29,10,25,8.50
2007,09,29,10,26,14.20
2007,09,29,10,27,5.80
2007,09,29,10,28,7.80
2007,09,29,10,29,9.70
2007,09,29,10,30,9.90
2007,09,29,10,31,10.10
2007,09,29,10,32,8.90
2007,09,29,10,33,11.20
2007,09,29,10,34,15.00
2007,09,29,10,35,10.50
2007,09,29,10,36,6.40
2007,09,29,10,37,11.10
2007,09,29,10,38,12.30
2007,09,29,10,39,8.30
2007,09,29,10,40,5.50
2007,09,29,10,41,4.60
2007,09,29,10,42,7.50
2007,09,29,10,43,7.50
2007,09,29,10,44,5.70
2007,09,29,10,45,8.30
2007,09,29,10,46,6.80
2007,09,29,10,47,3.10
2007,09,29,10,48,4.50
2007,09,29,10,49,2.80
2007,09,29,10,50,5.70
2007,09,29,10,51,9.50
2007,09,29,10,52,5.60
2007,09,29,10,53,7.40
2007,09,29,10,54,4.00
2007,09,29,10,55,6.70
2007,09,29,10,56,8.60
2007,09,29,10,57,10.90
2007,09,29,10,58,6.30
2007,09,29,10,59,4.50
2007,09,29,11,00,8.80
2007,09,29,11,01,8.50
2007,09,29,11,02,5.30
2007,09,29,11,03,6.40
2007,09,29,11,04,7.10
2007,09,29,11,05,11.00
2007,09,29,11,06,2.70
2007,09,29,11,07,7.50
2007,09,29,11,08,8.80
2007,09,29,11,09,12.50
2007,09,29,11,10,13.60
2007,09,29,11,11,6.00
2007,09,29,11,12,4.90
2007,09,29,11,13,4.80
2007,09,29,11,14,5.50
2007,09,29,11,15,11.30
2007,09,29,11,16,6.10
2007,09,29,11,17,4.20
2007,09,29,11,18,3.90
2007,09,29,11,19,8.20
2007,09,29,11,20,7.60
2007,09,29,11,21,14.20
2007,09,29,11,22,15.90
2007,09,29,11,23,13.20
2007,09,29,11,24,9.20
2007,09,29,11,25,10.70
2007,09,29,11,26,8.90
2007,09,29,11,27,18.50
2007,09,29,11,28,8.10
2007,09,29,11,29,11.10
2007,09,29,11,30,8.00
2007,09,29,11,31,13.50
2007,09,29,11,32,10.10
2007,09,29,11,33,10.10
2007,09,29,11,34,12.80
2007,09,29,11,35,6.60
2007,09,29,11,36,7.20
2007,09,29,11,37,8.70
2007,09,29,11,38,6.40
2007,09,29,11,39,4.70
2007,09,29,11,40,7.60
2007,09,29,11,41,13.80
2007,09,29,11,42,11.80
2007,09,29,11,43,4.60
2007,09,29,11,44,10.30
2007,09,29,11,45,10.60
2007,09,29,11,46,10.90
2007,09,29,11,47,14.20
2007,09,29,11,48,11.30
2007,09,29,11,49,6.60
2007,09,29,11,50,6.40
2007,09,29,11,51,3.90
2007,09,29,11,52,12.00
2007,09,29,11,53,7.50
2007,09,29,11,54,5.70
2007,09,29,11,55,11.00
2007,09,29,11,56,7.70
2007,09,29,11,57,8.90
2007,09,29,11,58,8.70
2007,09,29,11,59,5.80
2007,09,29,12,00,10.50
2007,09,29,12,01,9.90
2007,09,29,12,02,10.70
2007,09,29,12,03,5.20
2007,09,29,12,04,5.50
2007,09,29,12,05,3.90
2007,09,29,12,06,6.80
2007,09,29,12,07,6.60
2007,09,29,12,08,6.20
2007,09,29,12,09,11.40
2007,09,29,12,10,8.50
2007,09,29,12,11,7.60
2007,09,29,12,12,7.00
2007,09,29,12,13,8.00
2007,09,29,12,14,4.40
2007,09,29,12,15,8.00
2007,09,29,12,16,11.70
2007,09,29,12,17,3.80
2007,09,29,12,18,6.00
2007,09,29,12,19,3.60
2007,09,29,12,20,7.90
2007,09,29,12,21,6.40
2007,09,29,12,22,10.40
2007,09,29,12,23,6.60
2007,09,29,12,24,7.50
2007,09,29,12,25,6.80
2007,09,29,12,26,9.40
2007,09,29,12,27,5.60
2007,09,29,12,28,9.90
2007,09,29,12,29,8.90
2007,09,29,12,30,4.90
2007,09,29,12,31,7.50
2007,09,29,12,32,7.70
2007,09,29,12,33,6.40
2007,09,29,12,34,6.60
2007,09,29,12,35,12.80
2007,09,29,12,36,9.80
2007,09,29,12,37,10.10
2007,09,29,12,38,6.70
2007,09,29,12,39,5.10
2007,09,29,12,40,4.20
2007,09,29,12,41,4.70
2007,09,29,12,42,5.40
2007,09,29,12,43,4.00
2007,09,29,12,44,4.60
2007,09,29,12,45,9.40
2007,09,29,12,46,6.20
2007,09,29,12,47,7.10
2007,09,29,12,48,8.20
2007,09,29,12,49,6.80
2007,09,29,12,50,7.60
2007,09,29,12,51,9.70
2007,09,29,12,52,7.80
2007,09,29,12,53,6.70
2007,09,29,12,54,4.80
2007,09,29,12,55,6.40
2007,09,29,12,56,9.70
2007,09,29,12,57,6.90
2007,09,29,12,58,5.10
2007,09,29,12,59,5.80
2007,09,29,13,00,4.00
2007,09,29,13,01,7.00
2007,09,29,13,02,6.10
2007,09,29,13,03,9.00
2007,09,29,13,04,8.90
2007,09,29,13,05,5.80
2007,09,29,13,06,5.70
2007,09,29,13,07,12.60
2007,09,29,13,08,8.00
2007,09,29,13,09,4.90
2007,09,29,13,10,2.60
2007,09,29,13,11,4.70
2007,09,29,13,12,5.40
2007,09,29,13,13,5.30
2007,09,29,13,14,6.00
2007,09,29,13,15,13.40
2007,09,29,13,16,6.90
2007,09,29,13,17,8.10
2007,09,29,13,18,8.70
2007,09,29,13,19,13.20
2007,09,29,13,20,10.70
2007,09,29,13,21,5.60
2007,09,29,13,22,5.00
2007,09,29,13,23,12.20
2007,09,29,13,24,8.60
2007,09,29,13,25,6.50
2007,09,29,13,26,6.80
2007,09,29,13,27,7.20
2007,09,29,13,28,8.10
2007,09,29,13,29,2.40
2007,09,29,13,30,0.90
2007,09,29,13,31,5.10
2007,09,29,13,32,5.40
2007,09,29,13,33,6.60
2007,09,29,13,34,6.20
2007,09,29,13,35,6.00
2007,09,29,13,36,7.40
2007,09,29,13,37,10.90
2007,09,29,13,38,10.40
2007,09,29,13,39,9.00
2007,09,29,13,40,7.70
2007,09,29,13,41,2.00
2007,09,29,13,42,5.40
2007,09,29,13,43,10.90
2007,09,29,13,44,5.20
2007,09,29,13,45,7.60
2007,09,29,13,46,8.90
2007,09,29,13,47,4.80
2007,09,29,13,48,8.90
2007,09,29,13,49,3.30
2007,09,29,13,50,7.70
2007,09,29,13,51,6.70
2007,09,29,13,52,4.60
2007,09,29,13,53,5.50
2007,09,29,13,54,4.90
2007,09,29,13,55,6.80
2007,09,29,13,56,11.10
2007,09,29,13,57,7.20
2007,09,29,13,58,9.80
2007,09,29,13,59,5.50
2007,09,29,14,00,4.90
2007,09,29,14,01,3.40
2007,09,29,14,02,3.10
2007,09,29,14,03,6.70
2007,09,29,14,04,8.30
2007,09,29,14,05,7.70
2007,09,29,14,06,9.80
2007,09,29,14,07,8.10
2007,09,29,14,08,7.10
2007,09,29,14,09,5.50
2007,09,29,14,10,3.50
2007,09,29,14,11,6.80
2007,09,29,14,12,6.70
2007,09,29,14,13,11.70
2007,09,29,14,14,4.50
2007,09,29,14,15,3.60
2007,09,29,14,16,4.40
2007,09,29,14,17,4.20
2007,09,29,14,18,6.40
2007,09,29,14,19,10.10
2007,09,29,14,20,5.70
2007,09,29,14,21,7.60
2007,09,29,14,22,4.10
2007,09,29,14,23,6.70
2007,09,29,14,24,1.80
2007,09,29,14,25,3.90
2007,09,29,14,26,5.40
2007,09,29,14,27,6.80
2007,09,29,14,28,1.60
2007,09,29,14,29,3.90
2007,09,29,14,30,11.90
2007,09,29,14,31,2.60
2007,09,29,14,32,3.60
2007,09,29,14,33,4.60
2007,09,29,14,34,2.60
2007,09,29,14,35,5.60
2007,09,29,14,36,6.30
2007,09,29,14,37,6.50
2007,09,29,14,38,5.90
2007,09,29,14,39,5.20
2007,09,29,14,40,4.40
2007,09,29,14,41,6.30
2007,09,29,14,42,6.40
2007,09,29,14,43,3.50
2007,09,29,14,44,9.70
2007,09,29,14,45,6.00
2007,09,29,14,46,3.40
2007,09,29,14,47,2.60
2007,09,29,14,48,2.30
2007,09,29,14,49,3.80
2007,09,29,14,50,7.70
2007,09,29,14,51,2.60
2007,09,29,14,52,2.70
2007,09,29,14,53,6.80
2007,09,29,14,54,6.20
2007,09,29,14,55,3.60
2007,09,29,14,56,1.90
2007,09,29,14,57,1.90
2007,09,29,14,58,4.40
2007,09,29,14,59,1.90
2007,09,29,15,00,5.40
2007,09,29,15,01,4.60
2007,09,29,15,02,4.40
2007,09,29,15,03,6.10
2007,09,29,15,04,6.00
2007,09,29,15,05,7.70
2007,09,29,15,06,7.20
2007,09,29,15,07,3.40
2007,09,29,15,08,1.90
2007,09,29,15,09,5.00
2007,09,29,15,10,1.20
2007,09,29,15,11,0.00
2007,09,29,15,12,1.10
2007,09,29,15,13,2.60
2007,09,29,15,14,0.80
2007,09,29,15,15,2.60
2007,09,29,15,16,4.00
2007,09,29,15,17,1.70
2007,09,29,15,18,3.00
2007,09,29,15,19,2.00
2007,09,29,15,20,2.50
2007,09,29,15,21,0.50
2007,09,29,15,22,3.10
2007,09,29,15,23,2.30
2007,09,29,15,24,3.50
2007,09,29,15,25,2.20
2007,09,29,15,26,5.20
2007,09,29,15,27,3.30
2007,09,29,15,28,1.90
2007,09,29,15,29,2.20
2007,09,29,15,30,2.20
2007,09,29,15,31,4.80
2007,09,29,15,32,2.80
2007,09,29,15,33,3.10
2007,09,29,15,34,1.80
2007,09,29,15,35,5.10
2007,09,29,15,36,0.70
2007,09,29,15,37,3.10
2007,09,29,15,38,1.20
2007,09,29,15,39,1.60
2007,09,29,15,40,4.30
2007,09,29,15,41,2.80
2007,09,29,15,42,5.20
2007,09,29,15,43,4.60
2007,09,29,15,44,8.50
2007,09,29,15,45,4.50
2007,09,29,15,46,1.00
2007,09,29,15,47,0.70
2007,09,29,15,48,3.40
2007,09,29,15,49,1.70
2007,09,29,15,50,1.90
2007,09,29,15,51,1.10
2007,09,29,15,52,1.60
2007,09,29,15,53,4.30
2007,09,29,15,54,3.50
2007,09,29,15,55,0.60
2007,09,29,15,56,0.50
2007,09,29,15,57,3.80
2007,09,29,15,58,4.90
2007,09,29,15,59,4.70
2007,09,29,16,00,2.40
2007,09,29,16,01,2.70
2007,09,29,16,02,4.50
2007,09,29,16,03,1.90
2007,09,29,16,04,2.50
2007,09,29,16,05,5.90
2007,09,29,16,06,9.30
2007,09,29,16,07,6.40
2007,09,29,16,08,9.50
2007,09,29,16,09,5.60
2007,09,29,16,10,3.50
2007,09,29,16,11,4.00
2007,09,29,16,12,2.00
2007,09,29,16,13,3.20
2007,09,29,16,14,2.80
2007,09,29,16,15,5.20
2007,09,29,16,16,4.00
2007,09,29,16,17,6.10
2007,09,29,16,18,4.30
2007,09,29,16,19,5.60
2007,09,29,16,20,6.40
2007,09,29,16,21,4.40
2007,09,29,16,22,7.20
2007,09,29,16,23,4.80
2007,09,29,16,24,7.00
2007,09,29,16,25,4.30
2007,09,29,16,26,3.50
2007,09,29,16,27,7.80
2007,09,29,16,28,4.80
2007,09,29,16,29,6.40
2007,09,29,16,30,3.80
2007,09,29,16,31,5.30
2007,09,29,16,32,7.40
2007,09,29,16,33,4.70
2007,09,29,16,34,3.00
2007,09,29,16,35,5.80
2007,09,29,16,36,3.30
2007,09,29,16,37,5.90
2007,09,29,16,38,4.40
2007,09,29,16,39,6.80
2007,09,29,16,40,5.30
2007,09,29,16,41,1.10
2007,09,29,16,42,4.20
2007,09,29,16,43,5.80
2007,09,29,16,44,5.10
2007,09,29,16,45,2.50
2007,09,29,16,46,1.40
2007,09,29,16,47,1.40
2007,09,29,16,48,8.00
2007,09,29,16,49,10.50
2007,09,29,16,50,6.30
2007,09,29,16,51,5.70
2007,09,29,16,52,2.40
2007,09,29,16,53,1.10
2007,09,29,16,54,0.90
2007,09,29,16,55,1.20
2007,09,29,16,56,3.10
2007,09,29,16,57,2.00
2007,09,29,16,58,2.80
2007,09,29,16,59,1.80
2007,09,29,17,00,1.50
2007,09,29,17,01,3.40
2007,09,29,17,02,5.50
2007,09,29,17,03,5.10
2007,09,29,17,04,3.90
2007,09,29,17,05,1.20
2007,09,29,17,06,2.60
2007,09,29,17,07,1.10
2007,09,29,17,08,1.40
2007,09,29,17,09,1.30
2007,09,29,17,10,0.40
2007,09,29,17,11,2.70
2007,09,29,17,12,3.50
2007,09,29,17,13,3.30
2007,09,29,17,14,4.30
2007,09,29,17,15,2.50
2007,09,29,17,16,4.00
2007,09,29,17,17,4.10
2007,09,29,17,18,6.90
2007,09,29,17,19,3.50
2007,09,29,17,20,4.20
2007,09,29,17,21,0.30
2007,09,29,17,22,5.50
2007,09,29,17,23,5.00
2007,09,29,17,24,4.00
2007,09,29,17,25,2.50
2007,09,29,17,26,4.50
2007,09,29,17,27,1.40
2007,09,29,17,28,1.60
2007,09,29,17,29,3.40
2007,09,29,17,30,3.50
2007,09,29,17,31,5.50
2007,09,29,17,32,5.60
2007,09,29,17,33,3.60
2007,09,29,17,34,3.00
2007,09,29,17,35,0.30
2007,09,29,17,36,3.90
2007,09,29,17,37,3.40
2007,09,29,17,38,4.40
2007,09,29,17,39,8.80
2007,09,29,17,40,5.00
2007,09,29,17,41,0.30
2007,09,29,17,42,3.70
2007,09,29,17,43,4.50
2007,09,29,17,44,3.50
2007,09,29,17,45,3.40
2007,09,29,17,46,4.00
2007,09,29,17,47,3.50
2007,09,29,17,48,3.60
2007,09,29,17,49,4.50
2007,09,29,17,50,2.70
2007,09,29,17,51,3.50
2007,09,29,17,52,4.60
2007,09,29,17,53,2.80
2007,09,29,17,54,4.80
2007,09,29,17,55,6.20
2007,09,29,17,56,3.20
2007,09,29,17,57,5.80
2007,09,29,17,58,1.80
2007,09,29,17,59,1.70
2007,09,29,18,00,1.80
2007,09,29,18,01,2.80
2007,09,29,18,02,3.90
2007,09,29,18,03,2.60